"2009-11-06 00:00:00",1391326,12.28,290.4,1.032,0.27,18.39,107.9663,19.67,20.63,10.25,0,110.7,13.24,20.49,252.4
"2009-11-06 00:00:30",1391327,13.58,290.3,1.533,0.467,18.51,107.9678,19.68,20.62,10.27,0,110.7,13.24,20.50,252.3
"2009-11-06 00:01:00",1391328,13.08,290.9,1.05,0.184,18.56,107.9688,19.68,20.6,10.27,0,110.7,13.24,20.50,252.9
"2009-11-06 00:01:30",1391329,12.89,290.8,1.408,0.342,18.44,107.9685,19.68,20.61,10.29,0,110.7,13.24,20.50,252.8
"2009-11-06 00:02:00",1391330,12.77,290.6,1.279,0.33,18.38,107.9697,19.68,20.59,10.32,0,110.7,13.24,20.50,252.6
"2009-11-06 00:02:30",1391331,12.99,290.8,1.011,0.418,18.38,107.9669,19.67,20.6,10.35,0,110.7,13.24,20.50,252.8
"2009-11-06 00:03:00",1391332,13.12,290.9,0.893,0.182,18.42,107.9604,19.66,20.59,10.36,0,110.7,13.24,20.48,252.9
"2009-11-06 00:03:30",1391333,13.33,292,0.665,0.304,18.44,107.9525,19.64,20.58,10.37,0,110.7,13.24,20.46,254.0
"2009-11-06 00:04:00",1391334,13.2,291.9,0.832,0.172,18.4,107.9486,19.63,20.6,10.39,0,110.7,13.24,20.45,253.9
"2009-11-06 00:04:30",1391335,13.59,292.1,1.055,0.237,18.39,107.9444,19.62,20.58,10.39,0,110.7,13.24,20.44,254.1
"2009-11-06 00:05:00",1391336,13.84,292.7,0.708,0.448,18.4,107.9385,19.6,20.59,10.41,0,110.7,13.24,20.42,254.7
"2009-11-06 00:05:30",1391337,14.62,293.4,1.153,0.22,18.43,107.9371,19.6,20.57,10.45,0,110.7,13.24,20.42,255.4
"2009-11-06 00:06:00",1391338,13.78,294.4,0.919,0.336,18.37,107.9371,19.6,20.58,10.47,0,110.7,13.23,20.42,256.4
"2009-11-06 00:06:30",1391339,14.07,293.2,1.182,0.422,18.38,107.9365,19.6,20.57,10.45,0,110.7,13.23,20.42,255.2
"2009-11-06 00:07:00",1391340,13.36,292.6,2.014,0.388,18.41,107.9365,19.6,20.58,10.44,0,110.7,13.23,20.42,254.6
"2009-11-06 00:07:30",1391341,12.62,292.5,1.222,0.456,18.33,107.9365,19.6,20.57,10.44,0,110.7,13.23,20.42,254.5
"2009-11-06 00:08:00",1391342,12.89,290.5,2.647,0.299,18.42,107.9365,19.6,20.58,10.47,0,110.7,13.23,20.42,252.5
"2009-11-06 00:08:30",1391343,12.05,287.3,2.951,0.376,18.41,107.9365,19.6,20.57,10.45,0,110.7,13.23,20.42,249.3
"2009-11-06 00:09:00",1391344,12.4,292.1,1.462,0.301,18.38,107.9365,19.6,20.57,10.46,0,110.7,13.23,20.42,254.1
"2009-11-06 00:09:30",1391345,12.8,292.4,1.377,0.279,18.42,107.9365,19.6,20.55,10.48,0,110.7,13.23,20.42,254.4
"2009-11-06 00:10:00",1391346,12.62,292.7,2.039,0.187,18.38,107.9365,19.6,20.56,10.5,0,110.7,13.24,20.42,254.7
"2009-11-06 00:10:30",1391347,12.11,294,1.888,0.294,18.39,107.9351,19.59,20.56,10.51,0,110.7,13.24,20.41,256.0
"2009-11-06 00:11:00",1391348,12.11,292.9,0.644,0.206,18.35,107.932,19.59,20.55,10.51,0,110.7,13.24,20.41,254.9
"2009-11-06 00:11:30",1391349,12.37,294.1,1.217,0.31,18.4,107.9255,19.57,20.55,10.5,0,110.7,13.24,20.39,256.1
"2009-11-06 00:12:00",1391350,13.21,293.4,1.222,0.353,18.43,107.9241,19.56,20.55,10.53,0,110.7,13.24,20.39,255.4
"2009-11-06 00:12:30",1391351,13.53,293.9,1.05,0.211,18.42,107.9146,19.54,20.53,10.53,0,110.7,13.24,20.36,255.9
"2009-11-06 00:13:00",1391352,13.62,293.2,0.751,0.189,18.46,107.9059,19.52,20.52,10.52,0,110.7,13.24,20.34,255.2
"2009-11-06 00:13:30",1391353,13.27,294.1,0.787,0.225,18.46,107.903,19.51,20.54,10.52,0,110.7,13.24,20.33,256.1
"2009-11-06 00:14:00",1391354,13.17,294.9,1.478,0.208,18.4,107.9036,19.51,20.52,10.53,0,110.7,13.24,20.33,256.9
"2009-11-06 00:14:30",1391355,12.53,295.3,0.953,0.206,18.37,107.9045,19.51,20.53,10.53,0,110.7,13.24,20.33,257.3
"2009-11-06 00:15:00",1391356,12.51,296.3,1.368,0.248,18.3,107.9067,19.52,20.52,10.55,0,110.7,13.25,20.34,258.3
"2009-11-06 00:15:30",1391357,12.56,294,2.016,0.252,18.31,107.9064,19.52,20.51,10.55,0,110.7,13.24,20.34,256.0
"2009-11-06 00:16:00",1391358,12.45,296.3,2.272,0.211,18.33,107.9079,19.52,20.51,10.54,0,110.7,13.25,20.34,258.3
"2009-11-06 00:16:30",1391359,12.94,295.5,0.744,0.247,18.35,107.9121,19.53,20.5,10.54,0,110.7,13.25,20.35,257.5
"2009-11-06 00:17:00",1391360,13.15,291.8,2.115,0.438,18.35,107.9137,19.54,20.49,10.53,0,110.7,13.25,20.36,253.8
"2009-11-06 00:17:30",1391361,13.27,296.4,1.716,0.303,18.34,107.9176,19.55,20.49,10.56,0,110.7,13.25,20.37,258.4
"2009-11-06 00:18:00",1391362,13.93,296.2,1.636,0.162,18.48,107.919,19.55,20.49,10.55,0,110.7,13.25,20.37,258.2
"2009-11-06 00:18:30",1391363,13.6,300,1.405,0.353,18.4,107.9165,19.55,20.49,10.5,0,110.7,13.25,20.37,262.0
"2009-11-06 00:19:00",1391364,12.84,297.8,1.472,0.489,18.36,107.92,19.55,20.48,10.56,0,110.7,13.25,20.37,259.8
"2009-11-06 00:19:30",1391365,12.94,297.8,0.984,0.214,18.28,107.9145,19.54,20.48,10.59,0,110.7,13.25,20.36,259.8
"2009-11-06 00:20:00",1391366,14.24,296.5,0.632,0.263,18.39,107.9122,19.53,20.48,10.6,0,110.7,13.25,20.35,258.5
"2009-11-06 00:20:30",1391367,14.08,297.1,0.758,0.173,18.35,107.9072,19.52,20.46,10.62,0,110.7,13.25,20.34,259.1
"2009-11-06 00:21:00",1391368,13.97,296.1,0.546,0.242,18.35,107.9036,19.51,20.46,10.62,0,110.7,13.25,20.33,258.1
"2009-11-06 00:21:30",1391369,13.94,296.9,0.756,0.098,18.39,107.8999,19.5,20.47,10.62,0,110.7,13.25,20.32,258.9
"2009-11-06 00:22:00",1391370,13.89,298.5,0.836,0.252,18.42,107.8977,19.5,20.47,10.6,0,110.7,13.25,20.32,260.5
"2009-11-06 00:22:30",1391371,14.15,298.2,0.702,0.187,18.46,107.8978,19.5,20.47,10.54,0,110.7,13.25,20.32,260.2
"2009-11-06 00:23:00",1391372,13.68,297.7,0.67,0.121,18.36,107.9002,19.5,20.47,10.57,0,110.7,13.25,20.32,259.7
"2009-11-06 00:23:30",1391373,14.34,297.1,0.632,0.187,18.37,107.9008,19.51,20.47,10.67,0,110.7,13.25,20.33,259.1
"2009-11-06 00:24:00",1391374,14.02,298.4,0.542,0.16,18.41,107.9021,19.51,20.47,10.71,0,110.7,13.25,20.33,260.4
"2009-11-06 00:24:30",1391375,13.85,297.2,0.945,0.302,18.38,107.9042,19.51,20.47,10.72,0,110.7,13.25,20.33,259.2
"2009-11-06 00:25:00",1391376,14.19,298.3,0.781,0.214,18.4,107.9032,19.51,20.47,10.7,0,110.7,13.25,20.33,260.3
"2009-11-06 00:25:30",1391377,14.13,300.2,0.789,0.243,18.41,107.9044,19.51,20.47,10.59,0,110.7,13.25,20.33,262.2
"2009-11-06 00:26:00",1391378,14.07,300.7,0.7,0.217,18.36,107.9063,19.52,20.48,10.65,0,110.7,13.25,20.34,262.7
"2009-11-06 00:26:30",1391379,14.51,299,0.799,0.425,18.36,107.9099,19.53,20.48,10.76,0,110.7,13.25,20.35,261.0
"2009-11-06 00:27:00",1391380,14.93,298.5,0.698,0.247,18.38,107.9093,19.53,20.46,10.73,0,110.7,13.25,20.35,260.5
"2009-11-06 00:27:30",1391381,14.86,300.3,0.848,0.175,18.36,107.9107,19.53,20.47,10.74,0,110.7,13.25,20.35,262.3
"2009-11-06 00:28:00",1391382,15.22,299.5,1.347,0.373,18.36,107.9116,19.53,20.48,10.73,0,110.7,13.25,20.35,261.5
"2009-11-06 00:28:30",1391383,15.11,299.6,0.448,0.159,18.41,107.9102,19.53,20.47,10.67,0,110.7,13.26,20.35,261.6
"2009-11-06 00:29:00",1391384,15.32,300.2,0.72,0.153,18.38,107.9119,19.53,20.47,10.64,0,110.7,13.26,20.35,262.2
"2009-11-06 00:29:30",1391385,15,300.2,0.688,0.279,18.49,107.9138,19.54,20.48,10.47,0,110.7,13.26,20.36,262.2
"2009-11-06 00:30:00",1391386,14.87,300.9,0.828,0.162,18.43,107.9184,19.55,20.48,10.41,0,110.7,13.26,20.37,262.9
"2009-11-06 00:30:30",1391387,14.87,300.8,0.663,0.1,18.46,107.9192,19.55,20.49,10.35,0,110.7,13.26,20.37,262.8
"2009-11-06 00:31:00",1391388,14.93,301.2,1.04,0.186,18.48,107.9257,19.57,20.49,10.14,0,110.7,13.26,20.39,263.2
"2009-11-06 00:31:30",1391389,15.06,301.3,0.921,0.214,18.42,107.9316,19.58,20.5,10.24,0,110.7,13.26,20.40,263.3
"2009-11-06 00:32:00",1391390,15.36,301.6,1.01,0.249,18.42,107.9381,19.6,20.49,10.24,0,110.7,13.26,20.42,263.6
"2009-11-06 00:32:30",1391391,15.34,302.4,0.888,0.213,18.41,107.9392,19.6,20.49,10.3,0,110.7,13.26,20.42,264.4
"2009-11-06 00:33:00",1391392,15.31,301.8,0.853,0.179,18.4,107.9392,19.6,20.51,10.44,0,110.7,13.26,20.42,263.8
"2009-11-06 00:33:30",1391393,14.78,302.5,0.613,0.332,18.36,107.9392,19.6,20.5,10.56,0,110.7,13.26,20.42,264.5
"2009-11-06 00:34:00",1391394,14.2,303.9,0.536,0.126,18.44,107.9392,19.6,20.52,10.35,0,110.7,13.26,20.42,265.9
"2009-11-06 00:34:30",1391395,14.09,303.3,0.488,0.221,18.37,107.9392,19.6,20.53,10.44,0,110.7,13.26,20.42,265.3
"2009-11-06 00:35:00",1391396,14.82,302,1.149,0.227,18.38,107.9392,19.6,20.53,10.54,0,110.7,13.26,20.42,264.0
"2009-11-06 00:35:30",1391397,14.93,301.1,0.804,0.155,18.32,107.9392,19.6,20.54,10.66,0,110.7,13.26,20.42,263.1
"2009-11-06 00:36:00",1391398,14.78,300.6,1.099,0.124,18.44,107.9392,19.6,20.54,10.51,0,110.7,13.26,20.42,262.6
"2009-11-06 00:36:30",1391399,14.73,299.9,0.754,0.304,18.49,107.9392,19.6,20.55,10.19,0,110.7,13.26,20.42,261.9
"2009-11-06 00:37:00",1391400,14.65,300.7,1.117,0.261,18.4,107.9392,19.6,20.56,10.22,0,110.7,13.26,20.42,262.7
"2009-11-06 00:37:30",1391401,14.94,300.3,0.669,0.427,18.41,107.9392,19.6,20.55,10.26,0,110.7,13.26,20.42,262.3
"2009-11-06 00:38:00",1391402,15.62,298.5,0.981,0.142,18.46,107.9392,19.6,20.55,10.48,0,110.7,13.26,20.42,260.5
"2009-11-06 00:38:30",1391403,15.13,297.5,0.9,0.246,18.65,107.9392,19.6,20.56,9.83,0,110.7,13.26,20.42,259.5
"2009-11-06 00:39:00",1391404,15.04,298.6,1.02,0.561,18.46,107.9392,19.6,20.56,9.73,0,110.7,13.26,20.42,260.6
"2009-11-06 00:39:30",1391405,15.38,297.1,1.336,0.321,18.49,107.9445,19.62,20.56,10.18,0,110.6,13.26,20.44,259.1
"2009-11-06 00:40:00",1391406,15.2,298.3,1.104,0.223,18.57,107.9578,19.65,20.58,10.12,0,110.7,13.25,20.47,260.3
"2009-11-06 00:40:30",1391407,15.39,297.1,0.683,0.202,18.42,107.9625,19.66,20.58,10.52,0,110.7,13.25,20.48,259.1
"2009-11-06 00:41:00",1391408,15.15,296.6,1.079,0.242,18.52,107.9637,19.67,20.57,10.71,0,110.6,13.25,20.49,258.6
"2009-11-06 00:41:30",1391409,15.05,296.9,0.663,0.231,18.59,107.9685,19.68,20.61,10.65,0,110.7,13.25,20.50,258.9
"2009-11-06 00:42:00",1391410,15.68,295.9,1.238,0.33,18.55,107.9727,19.69,20.62,10.76,0,110.6,13.25,20.51,257.9
"2009-11-06 00:42:30",1391411,15.65,296.6,1.151,0.268,18.52,107.973,19.69,20.61,10.96,0,110.6,13.26,20.51,258.6
"2009-11-06 00:43:00",1391412,15.51,294.4,1.462,0.288,18.5,107.973,19.69,20.63,10.98,0,110.7,13.25,20.51,256.4
"2009-11-06 00:43:30",1391413,14.56,295.9,2.41,0.192,18.5,107.973,19.69,20.63,10.95,0,110.6,13.25,20.51,257.9
"2009-11-06 00:44:00",1391414,14.77,298,1.182,0.404,18.42,107.973,19.69,20.63,10.86,0,110.6,13.26,20.51,260.0
"2009-11-06 00:44:30",1391415,14.6,298.2,0.841,0.47,18.44,107.973,19.69,20.62,10.76,0,110.6,13.26,20.51,260.2
"2009-11-06 00:45:00",1391416,14.34,299.6,1.264,0.248,18.45,107.973,19.69,20.66,10.6,0,110.7,13.26,20.51,261.6
"2009-11-06 00:45:30",1391417,14.6,297.4,0.68,0.113,18.51,107.973,19.69,20.64,10.59,0,110.7,13.26,20.51,259.4
"2009-11-06 00:46:00",1391418,14.36,298,0.796,0.249,18.49,107.973,19.69,20.64,10.59,0,110.7,13.26,20.51,260.0
"2009-11-06 00:46:30",1391419,14.31,296.2,0.928,0.32,18.5,107.973,19.69,20.63,10.63,0,110.7,13.26,20.51,258.2
"2009-11-06 00:47:00",1391420,14.61,295.8,1.187,0.266,18.51,107.973,19.69,20.65,10.44,0,110.6,13.26,20.51,257.8
"2009-11-06 00:47:30",1391421,14.03,295.8,0.855,0.143,18.5,107.973,19.69,20.66,10.35,0,110.7,13.26,20.51,257.8
"2009-11-06 00:48:00",1391422,14.2,297.3,1.074,0.189,18.47,107.973,19.69,20.65,10.47,0,110.6,13.26,20.51,259.3
"2009-11-06 00:48:30",1391423,14.01,297.2,0.745,0.174,18.46,107.973,19.69,20.64,10.64,0,110.6,13.26,20.51,259.2
"2009-11-06 00:49:00",1391424,14,297.2,1.624,0.343,18.42,107.973,19.69,20.65,10.79,0,110.7,13.26,20.51,259.2
"2009-11-06 00:49:30",1391425,14.54,296.4,1.028,0.199,18.47,107.973,19.69,20.66,10.96,0,110.6,13.26,20.51,258.4
"2009-11-06 00:50:00",1391426,14.12,297,0.961,0.221,18.44,107.973,19.69,20.64,10.92,0,110.6,13.26,20.51,259.0
"2009-11-06 00:50:30",1391427,14.74,296.8,1.145,0.378,18.44,107.973,19.69,20.65,10.95,0,110.6,13.26,20.51,258.8
"2009-11-06 00:51:00",1391428,14.85,298.8,1.02,0.239,18.42,107.973,19.69,20.65,10.79,0,110.6,13.26,20.51,260.8
"2009-11-06 00:51:30",1391429,14.8,299.8,1.312,0.351,18.51,107.973,19.69,20.63,10.64,0,110.6,13.26,20.51,261.8
"2009-11-06 00:52:00",1391430,14.87,298.3,1.195,0.389,18.46,107.9727,19.69,20.62,10.81,0,110.6,13.26,20.51,260.3
"2009-11-06 00:52:30",1391431,15.91,296.4,1.745,0.363,18.42,107.971,19.69,20.63,11.04,0,110.6,13.26,20.51,258.4
"2009-11-06 00:53:00",1391432,15.15,297.3,1.351,0.603,18.5,107.9682,19.68,20.63,10.94,0,110.6,13.26,20.50,259.3
"2009-11-06 00:53:30",1391433,15.05,297,1.17,0.288,18.44,107.9671,19.68,20.63,10.91,0,110.6,13.26,20.50,259.0
"2009-11-06 00:54:00",1391434,14.22,297.8,1.737,0.552,18.45,107.9654,19.67,20.63,11,0,110.6,13.26,20.49,259.8
"2009-11-06 00:54:30",1391435,14.46,299,0.914,0.172,18.47,107.9645,19.67,20.62,10.72,0,110.6,13.26,20.49,261.0
"2009-11-06 00:55:00",1391436,14.44,297.5,1.173,0.304,18.42,107.9617,19.66,20.63,10.79,0,110.6,13.26,20.48,259.5
"2009-11-06 00:55:30",1391437,14.54,299.3,0.719,0.235,18.49,107.9634,19.67,20.63,10.91,0,110.6,13.26,20.49,261.3
"2009-11-06 00:56:00",1391438,15.09,298,0.93,0.419,18.52,107.9625,19.66,20.62,10.59,0,110.6,13.26,20.48,260.0
"2009-11-06 00:56:30",1391439,15.41,297.4,0.616,0.359,18.53,107.962,19.66,20.62,10.79,0,110.6,13.26,20.48,259.4
"2009-11-06 00:57:00",1391440,15.17,296.1,0.789,0.195,18.54,107.9625,19.66,20.63,10.8,0,110.6,13.26,20.48,258.1
"2009-11-06 00:57:30",1391441,15.55,294.9,1.433,0.265,18.52,107.964,19.67,20.62,10.93,0,110.6,13.26,20.49,256.9
"2009-11-06 00:58:00",1391442,15.96,293.4,1.43,0.322,18.56,107.9676,19.68,20.63,11.13,0,110.6,13.26,20.50,255.4
"2009-11-06 00:58:30",1391443,15.62,292.8,0.896,0.196,18.67,107.9704,19.68,20.64,10.92,0,110.6,13.26,20.50,254.8
"2009-11-06 00:59:00",1391444,15.41,291.9,1.29,0.265,18.52,107.973,19.69,20.63,10.89,0,110.6,13.26,20.51,253.9
"2009-11-06 00:59:30",1391445,15.11,290.2,1.007,0.349,18.66,107.973,19.69,20.64,10.85,0,110.6,13.26,20.51,252.2
"2009-11-06 01:00:00",1391446,15.08,290.9,1.141,0.245,18.56,107.973,19.69,20.63,10.82,0,110.6,13.26,20.51,252.9
"2009-11-06 01:00:30",1391447,14.78,292.5,0.571,0.379,18.55,107.973,19.69,20.64,10.78,0,110.6,13.26,20.51,254.5
"2009-11-06 01:01:00",1391448,14.42,292.7,0.632,0.214,18.5,107.9733,19.69,20.65,10.77,0,110.6,13.26,20.51,254.7
"2009-11-06 01:01:30",1391449,14.45,292.9,0.847,0.137,18.47,107.973,19.69,20.66,10.93,0,110.6,13.26,20.51,254.9
"2009-11-06 01:02:00",1391450,14.22,293.3,0.944,0.292,18.44,107.973,19.69,20.67,11.08,0,110.6,13.27,20.51,255.3
"2009-11-06 01:02:30",1391451,14.84,294.1,0.637,0.216,18.45,107.9736,19.69,20.66,11.13,0,110.7,13.27,20.51,256.1
"2009-11-06 01:03:00",1391452,15.01,295,0.744,0.139,18.44,107.973,19.69,20.68,11.28,0,110.6,13.27,20.51,257.0
"2009-11-06 01:03:30",1391453,15.09,294.3,0.692,0.285,18.51,107.9736,19.69,20.67,11.24,0,110.6,13.27,20.51,256.3
"2009-11-06 01:04:00",1391454,15.22,293.8,0.719,0.202,18.5,107.9733,19.69,20.67,11.18,0,110.6,13.27,20.51,255.8
"2009-11-06 01:04:30",1391455,15.12,293.3,1.011,0.224,18.52,107.9733,19.69,20.67,11.16,0,110.6,13.27,20.51,255.3
"2009-11-06 01:05:00",1391456,15.45,291.5,0.469,0.089,18.46,107.9736,19.69,20.66,11.35,0,110.6,13.27,20.51,253.5
"2009-11-06 01:05:30",1391457,15.44,291.6,0.748,0.133,18.44,107.9742,19.69,20.67,11.43,0,110.6,13.27,20.51,253.6
"2009-11-06 01:06:00",1391458,14.7,291.9,1.329,0.479,18.52,107.9745,19.69,20.66,11.41,0,110.6,13.27,20.51,253.9
"2009-11-06 01:06:30",1391459,14.19,291.6,1.359,0.212,18.52,107.9754,19.7,20.66,11.31,0,110.6,13.27,20.52,253.6
"2009-11-06 01:07:00",1391460,14.71,292,0.644,0.196,18.42,107.9754,19.7,20.67,11.33,0,110.6,13.27,20.52,254.0
"2009-11-06 01:07:30",1391461,15.13,292,0.479,0.155,18.46,107.9748,19.69,20.65,11.39,0,110.6,13.27,20.52,254.0
"2009-11-06 01:08:00",1391462,15.56,291,0.698,0.314,18.54,107.9742,19.69,20.66,11.33,0,110.6,13.27,20.51,253.0
"2009-11-06 01:08:30",1391463,15.93,290,0.768,0.259,18.52,107.9763,19.7,20.66,11.29,0,110.6,13.27,20.52,252.0
"2009-11-06 01:09:00",1391464,15.48,290.3,0.561,0.259,18.52,107.976,19.7,20.65,11.18,0,110.6,13.27,20.52,252.3
"2009-11-06 01:09:30",1391465,15.16,290.6,1.286,0.239,18.54,107.9757,19.7,20.65,10.94,0,110.6,13.27,20.52,252.6
"2009-11-06 01:10:00",1391466,14.68,291.9,0.886,0.198,18.5,107.9733,19.69,20.64,10.96,0,110.6,13.27,20.51,253.9
"2009-11-06 01:10:30",1391467,14.82,290.9,0.679,0.255,18.47,107.976,19.7,20.65,11.1,0,110.6,13.27,20.52,252.9
"2009-11-06 01:11:00",1391468,15.3,290.9,0.917,0.296,18.44,107.9763,19.7,20.64,11.35,0,110.6,13.27,20.52,252.9
"2009-11-06 01:11:30",1391469,15.41,289.3,0.953,0.348,18.51,107.9766,19.7,20.66,11.33,0,110.6,13.27,20.52,251.3
"2009-11-06 01:12:00",1391470,15.84,289,0.714,0.469,18.46,107.9778,19.7,20.66,11.37,0,110.6,13.27,20.52,251.0
"2009-11-06 01:12:30",1391471,15.78,288.7,0.565,0.187,18.56,107.9775,19.7,20.65,11.26,0,110.6,13.27,20.52,250.7
"2009-11-06 01:13:00",1391472,15.55,287.3,1.564,0.145,18.52,107.9772,19.7,20.64,11.31,0,110.6,13.26,20.52,249.3
"2009-11-06 01:13:30",1391473,15.39,285.6,1.26,0.381,18.61,107.9784,19.7,20.65,11.27,0,110.6,13.26,20.53,247.6
"2009-11-06 01:14:00",1391474,15.46,288.3,1.423,0.475,18.53,107.9787,19.71,20.64,11.15,0,110.6,13.26,20.53,250.3
"2009-11-06 01:14:30",1391475,15.53,287,1.377,0.535,18.45,107.9797,19.71,20.64,11.25,0,110.6,13.26,20.53,249.0
"2009-11-06 01:15:00",1391476,15.2,288.1,1.468,0.258,18.46,107.9818,19.71,20.65,11.22,0,110.6,13.26,20.53,250.1
"2009-11-06 01:15:30",1391477,15.67,290.1,1.594,0.217,18.47,107.9809,19.71,20.65,11.07,0,110.6,13.26,20.53,252.1
"2009-11-06 01:16:00",1391478,15.6,290.9,1.127,0.184,18.52,107.9794,19.71,20.64,11.09,0,110.6,13.26,20.53,252.9
"2009-11-06 01:16:30",1391479,15.49,291,1.261,0.187,18.51,107.9812,19.71,20.65,11.04,0,110.6,13.26,20.53,253.0
"2009-11-06 01:17:00",1391480,15.98,289.8,0.445,0.264,18.54,107.9833,19.72,20.66,11.05,0,110.6,13.26,20.54,251.8
"2009-11-06 01:17:30",1391481,15.59,288.8,0.52,0.162,18.54,107.9818,19.71,20.65,11.01,0,110.6,13.26,20.53,250.8
"2009-11-06 01:18:00",1391482,15.29,289.2,0.507,0.195,18.52,107.9839,19.72,20.66,11.05,0,110.6,13.27,20.54,251.2
"2009-11-06 01:18:30",1391483,15.31,288.8,0.537,0.131,18.51,107.9836,19.72,20.65,11.06,0,110.6,13.27,20.54,250.8
"2009-11-06 01:19:00",1391484,15.06,288,0.493,0.212,18.5,107.9845,19.72,20.65,11.11,0,110.6,13.27,20.54,250.0
"2009-11-06 01:19:30",1391485,14.59,288,0.493,0.099,18.47,107.9839,19.72,20.64,11.17,0,110.6,13.27,20.54,250.0
"2009-11-06 01:20:00",1391486,14.48,288.2,0.369,0.058,18.39,107.9866,19.73,20.65,11.19,0,110.6,13.27,20.55,250.2
"2009-11-06 01:20:30",1391487,14.4,288.4,0.622,0.114,18.38,107.9842,19.72,20.66,11.25,0,110.6,13.27,20.54,250.4
"2009-11-06 01:21:00",1391488,14.22,288.1,0.613,0.177,18.39,107.9839,19.72,20.65,11.32,0,110.6,13.27,20.54,250.1
"2009-11-06 01:21:30",1391489,14.62,286.7,0.657,0.133,18.44,107.9848,19.72,20.66,11.33,0,110.6,13.27,20.54,248.7
"2009-11-06 01:22:00",1391490,14.48,284.9,0.787,0.194,18.57,107.9864,19.72,20.65,11.32,0,110.6,13.27,20.55,246.9
"2009-11-06 01:22:30",1391491,14.69,287.4,0.874,0.209,18.45,107.9876,19.73,20.65,11.32,0,110.6,13.27,20.55,249.4
"2009-11-06 01:23:00",1391492,14.52,287.2,0.571,0.269,18.48,107.9823,19.71,20.65,11.3,0,110.6,13.27,20.54,249.2
"2009-11-06 01:23:30",1391493,14.35,288.3,1.455,0.284,18.43,107.979,19.71,20.66,11.3,0,110.6,13.27,20.53,250.3
"2009-11-06 01:24:00",1391494,14.33,287,1.907,0.291,18.48,107.9775,19.7,20.64,11.33,0,110.6,13.27,20.52,249.0
"2009-11-06 01:24:30",1391495,14.62,283.8,0.742,0.176,18.52,107.9787,19.7,20.64,11.45,0,110.6,13.27,20.53,245.8
"2009-11-06 01:25:00",1391496,14.8,284.5,1.372,0.218,18.6,107.9793,19.71,20.64,11.41,0,110.6,13.27,20.53,246.5
"2009-11-06 01:25:30",1391497,14.49,287.3,1.043,0.28,18.45,107.9748,19.7,20.64,11.3,0,110.6,13.27,20.52,249.3
"2009-11-06 01:26:00",1391498,14.43,287.8,0.767,0.412,18.43,107.972,19.69,20.62,11.31,0,110.6,13.27,20.51,249.8
"2009-11-06 01:26:30",1391499,13.94,287.3,0.961,0.192,18.41,107.9689,19.68,20.63,11.29,0,110.6,13.27,20.50,249.3
"2009-11-06 01:27:00",1391500,14.03,288.7,1.04,0.223,18.37,107.9643,19.67,20.63,11.38,0,110.6,13.27,20.49,250.7
"2009-11-06 01:27:30",1391501,13.68,286.9,0.998,0.09,18.35,107.9607,19.66,20.62,11.41,0,110.6,13.27,20.48,248.9
"2009-11-06 01:28:00",1391502,13.74,285.3,0.679,0.176,18.41,107.9604,19.66,20.62,11.5,0,110.6,13.27,20.48,247.3
"2009-11-06 01:28:30",1391503,13.82,286.4,0.529,0.159,18.32,107.9583,19.65,20.61,11.56,0,110.6,13.27,20.47,248.4
"2009-11-06 01:29:00",1391504,13.72,286.6,0.937,0.121,18.29,107.9602,19.66,20.62,11.6,0,110.6,13.27,20.48,248.6
"2009-11-06 01:29:30",1391505,13.44,287.3,0.895,0.152,18.37,107.9586,19.65,20.62,11.59,0,110.6,13.27,20.47,249.3
"2009-11-06 01:30:00",1391506,13.43,288.4,0.746,0.115,18.35,107.9568,19.65,20.62,11.59,0,110.6,13.27,20.47,250.4
"2009-11-06 01:30:30",1391507,13.37,289.2,0.612,0.294,18.41,107.9592,19.66,20.61,11.52,0,110.6,13.27,20.48,251.2
"2009-11-06 01:31:00",1391508,13.1,290.7,0.75,0.119,18.32,107.9599,19.66,20.6,11.55,0,110.6,13.26,20.48,252.7
"2009-11-06 01:31:30",1391509,13.61,291.1,0.708,0.238,18.39,107.9598,19.66,20.59,11.58,0,110.6,13.27,20.48,253.1
"2009-11-06 01:32:00",1391510,13.65,292.2,0.766,0.376,18.42,107.9502,19.63,20.58,11.62,0,110.6,13.26,20.45,254.2
"2009-11-06 01:32:30",1391511,14.17,292.8,0.759,0.208,18.43,107.9374,19.6,20.59,11.6,0,110.6,13.27,20.42,254.8
"2009-11-06 01:33:00",1391512,13.66,293.4,0.749,0.215,18.37,107.9291,19.58,20.56,11.61,0,110.6,13.27,20.40,255.4
"2009-11-06 01:33:30",1391513,13.37,292.7,0.582,0.131,18.29,107.9294,19.58,20.55,11.68,0,110.6,13.27,20.40,254.7
"2009-11-06 01:34:00",1391514,13.12,292.1,0.6,0.181,18.33,107.9312,19.58,20.54,11.7,0,110.6,13.27,20.40,254.1
"2009-11-06 01:34:30",1391515,13.13,292.7,0.978,0.233,18.27,107.9297,19.58,20.54,11.76,0,110.6,13.27,20.40,254.7
"2009-11-06 01:35:00",1391516,13.11,291.7,1.148,0.23,18.31,107.9315,19.58,20.54,11.76,0,110.6,13.27,20.40,253.7
"2009-11-06 01:35:30",1391517,12.84,291.2,2.755,0.322,18.28,107.9306,19.58,20.52,11.76,0,110.6,13.27,20.40,253.2
"2009-11-06 01:36:00",1391518,13.27,289.1,1.452,0.402,18.34,107.9316,19.58,20.52,11.79,0,110.6,13.27,20.40,251.1
"2009-11-06 01:36:30",1391519,13.2,289,1.272,0.244,18.37,107.9223,19.56,20.5,11.78,0,110.6,13.27,20.38,251.0
"2009-11-06 01:37:00",1391520,13.9,291.1,0.74,0.158,18.44,107.9045,19.51,20.49,11.78,0,110.6,13.27,20.33,253.1
"2009-11-06 01:37:30",1391521,14.03,289.9,0.769,0.237,18.47,107.8998,19.5,20.48,11.78,0,110.6,13.27,20.32,251.9
"2009-11-06 01:38:00",1391522,13.69,290.6,0.796,0.295,18.34,107.8993,19.5,20.47,11.8,0,110.6,13.27,20.32,252.6
"2009-11-06 01:38:30",1391523,13.24,291.2,1.169,0.186,18.3,107.899,19.5,20.46,11.82,0,110.6,13.27,20.32,253.2
"2009-11-06 01:39:00",1391524,13.1,288.9,0.61,0.177,18.31,107.899,19.5,20.46,11.84,0,110.6,13.27,20.32,250.9
"2009-11-06 01:39:30",1391525,13.51,289.1,0.507,0.182,18.42,107.8993,19.5,20.46,11.86,0,110.6,13.27,20.32,251.1
"2009-11-06 01:40:00",1391526,13.17,287.7,1.552,0.379,18.32,107.8993,19.5,20.45,11.88,0,110.6,13.27,20.32,249.7
"2009-11-06 01:40:30",1391527,13.3,289.2,1.795,0.279,18.3,107.899,19.5,20.46,11.88,0,110.6,13.27,20.32,251.2
"2009-11-06 01:41:00",1391528,13.75,290.4,0.974,0.386,18.39,107.902,19.51,20.44,11.88,0,110.6,13.27,20.33,252.4
"2009-11-06 01:41:30",1391529,14,290.9,1.376,0.259,18.37,107.902,19.51,20.45,11.9,0,110.6,13.27,20.33,252.9
"2009-11-06 01:42:00",1391530,13.94,292.6,0.964,0.147,18.39,107.9005,19.5,20.44,11.91,0,110.6,13.27,20.32,254.6
"2009-11-06 01:42:30",1391531,13.78,292.6,0.518,0.098,18.4,107.9017,19.51,20.42,11.93,0,110.6,13.27,20.33,254.6
"2009-11-06 01:43:00",1391532,13.6,293.3,0.933,0.103,18.39,107.8999,19.5,20.42,11.93,0,110.6,13.27,20.32,255.3
"2009-11-06 01:43:30",1391533,13.51,291.7,1.247,0.222,18.32,107.9018,19.51,20.42,11.94,0,110.6,13.27,20.33,253.7
"2009-11-06 01:44:00",1391534,13.4,291.6,1.111,0.177,18.33,107.8975,19.5,20.4,11.98,0,110.6,13.28,20.32,253.6
"2009-11-06 01:44:30",1391535,12.51,291.6,1.215,0.353,18.25,107.8912,19.48,20.41,11.96,0,110.6,13.28,20.30,253.6
"2009-11-06 01:45:00",1391536,12.49,294.3,1.05,0.223,18.27,107.8851,19.46,20.41,11.95,0,110.6,13.28,20.28,256.3
"2009-11-06 01:45:30",1391537,12.65,295.3,0.615,0.222,18.25,107.881,19.45,20.41,11.94,0,110.6,13.28,20.27,257.3
"2009-11-06 01:46:00",1391538,12.75,296.7,0.819,0.181,18.21,107.8764,19.44,20.4,11.96,0,110.6,13.27,20.26,258.7
"2009-11-06 01:46:30",1391539,12.77,296.7,0.887,0.225,18.19,107.8708,19.43,20.4,11.96,0,110.6,13.27,20.25,258.7